TimeCST,TemperatureF,Dew PointF,Humidity,Sea Level PressureIn,VisibilityMPH,Wind Direction,Wind SpeedMPH,Gust SpeedMPH,PrecipitationIn,Events,Conditions,WindDirDegrees,DateUTC
12:55 AM,38.8,34.0,83,30.14,10.0,WNW,5.8,-,N/A,,Clear,300,2012-11-20 06:55:00
1:55 AM,39.4,34.5,83,30.15,10.0,WNW,9.2,-,N/A,,Clear,300,2012-11-20 07:55:00
2:55 AM,36.5,33.3,88,30.16,10.0,WNW,5.8,-,N/A,,Clear,290,2012-11-20 08:55:00
3:55 AM,36.9,33.1,86,30.16,10.0,WNW,8.1,-,N/A,,Clear,290,2012-11-20 09:55:00
4:55 AM,34.2,30.6,87,30.18,10.0,NW,5.8,-,N/A,,Clear,320,2012-11-20 10:55:00
5:55 AM,33.6,31.1,90,30.20,10.0,NW,3.5,-,N/A,,Clear,310,2012-11-20 11:55:00
6:55 AM,33.3,30.6,90,30.22,10.0,West,3.5,-,N/A,,Clear,270,2012-11-20 12:55:00
7:55 AM,33.3,30.7,90,30.24,10.0,WNW,4.6,-,N/A,,Clear,290,2012-11-20 13:55:00
8:55 AM,37.9,33.4,84,30.25,10.0,WNW,4.6,-,N/A,,Clear,290,2012-11-20 14:55:00
9:55 AM,43.0,36.0,76,30.25,10.0,WNW,5.8,-,N/A,,Clear,290,2012-11-20 15:55:00
10:55 AM,47.7,37.2,67,30.25,10.0,Calm,Calm,-,N/A,,Clear,0,2012-11-20 16:55:00
11:55 AM,51.1,37.9,61,30.21,10.0,Calm,Calm,-,N/A,,Clear,0,2012-11-20 17:55:00
12:55 PM,55.4,39.0,54,30.19,10.0,Calm,Calm,-,N/A,,Clear,0,2012-11-20 18:55:00
1:55 PM,59.9,38.5,45,30.16,10.0,Variable,3.5,-,N/A,,Clear,0,2012-11-20 19:55:00
2:55 PM,62.4,35.4,37,30.15,10.0,SSE,3.5,-,N/A,,Clear,160,2012-11-20 20:55:00
3:55 PM,61.7,36.7,39,30.14,10.0,ESE,5.8,-,N/A,,Clear,110,2012-11-20 21:55:00
4:55 PM,54.5,36.7,51,30.14,10.0,SE,6.9,-,N/A,,Clear,130,2012-11-20 22:55:00
5:55 PM,52.5,33.6,49,30.15,10.0,SSE,5.8,-,N/A,,Clear,150,2012-11-20 23:55:00
6:55 PM,41.4,32.5,71,30.16,10.0,SE,3.5,-,N/A,,Clear,130,2012-11-21 00:55:00
7:55 PM,37.4,31.8,80,30.17,10.0,East,3.5,-,N/A,,Clear,100,2012-11-21 01:55:00
8:55 PM,36.5,31.5,82,30.17,10.0,East,4.6,-,N/A,,Clear,100,2012-11-21 02:55:00
9:55 PM,36.3,31.3,82,30.17,10.0,East,3.5,-,N/A,,Clear,100,2012-11-21 03:55:00
10:55 PM,36.5,31.8,83,30.15,10.0,East,4.6,-,N/A,,Clear,100,2012-11-21 04:55:00
11:55 PM,37.2,32.9,84,30.15,10.0,ESE,3.5,-,N/A,,Clear,110,2012-11-21 05:55:00